This is the latest recevied weather packets stored in our database for station/object AA1FF. If no packets are shown the sender has not sent any weather packets the latest 10 day(s).
| Time | Temp. | Humidity | Pressure | Rain* | Wind** | Luminosity | Snow |
|---|---|---|---|---|---|---|---|
| 1777921424 | 20.56° C | 32% | 1008 hPa | 0 mm | - | 767 W/m² | - |
| 1777921124 | 20.56° C | 31% | 1008 hPa | 0 mm | - | 790 W/m² | - |
| 1777920827 | 20° C | 34% | 1008 hPa | 0 mm | - | 748 W/m² | - |
| 1777920524 | 20° C | 32% | 1009 hPa | 0 mm | - | 798 W/m² | - |
| 1777920227 | 20.56° C | 32% | 1008 hPa | 0 mm | - | 442 W/m² | - |
| 1777919925 | 20° C | 32% | 1008 hPa | 0 mm | - | 816 W/m² | - |
| 1777919626 | 20° C | 31% | 1009 hPa | 0 mm | - | 718 W/m² | - |
| 1777919324 | 20° C | 32% | 1009 hPa | 0 mm | - | 585 W/m² | - |
| 1777919026 | 20° C | 32% | 1009 hPa | 0 mm | - | 828 W/m² | - |
| 1777918727 | 20° C | 31% | 1009 hPa | 0 mm | - | 842 W/m² | - |
| 1777918426 | 20° C | 31% | 1009 hPa | 0 mm | - | 846 W/m² | - |
| 1777918127 | 20° C | 31% | 1009 hPa | 0 mm | - | 848 W/m² | - |
| 1777917826 | 20° C | 31% | 1009 hPa | 0 mm | - | 857 W/m² | - |
| 1777917526 | 19.44° C | 35% | 1009 hPa | 0 mm | - | 864 W/m² | - |
| 1777917228 | 19.44° C | 32% | 1009 hPa | 0 mm | - | 873 W/m² | - |
| 1777916926 | 19.44° C | 32% | 1009 hPa | 0 mm | - | 883 W/m² | - |
| 1777916631 | 19.44° C | 31% | 1009 hPa | 0 mm | - | 835 W/m² | - |
| 1777916325 | 19.44° C | 33% | 1009 hPa | 0 mm | - | 896 W/m² | - |
| 1777916027 | 18.89° C | 33% | 1009 hPa | 0 mm | - | 825 W/m² | - |
| 1777915726 | 18.89° C | 31% | 1009 hPa | 0 mm | - | 679 W/m² | - |
| 1777915423 | 19.44° C | 31% | 1009 hPa | 0 mm | - | 899 W/m² | - |
| 1777915128 | 18.89° C | 32% | 1009 hPa | 0 mm | - | 910 W/m² | - |
| 1777914826 | 18.89° C | 32% | 1009 hPa | 0 mm | - | 904 W/m² | - |
| 1777914528 | 18.89° C | 31% | 1009 hPa | 0 mm | - | 911 W/m² | - |
| 1777914224 | 18.89° C | 31% | 1009 hPa | 0 mm | - | 920 W/m² | - |
* Rain latest hour (hover to see other rain measurements)
** Current wind speed in m/s (hover to see current wind gust speed)